Regional Weather Roundup
Issued by NWS Pendleton, OR

Home | Current Version | Previous Version | Text Only | Print | Product List | Glossary On
Versions: 1 2 3 4 5 6 7 8 9 10 11 12 13 14 15 16 17 18 19 20 21 22 23 24 25 26 27 28 29 30 31 32 33 34 35 36 37 38 39 40 41 42 43 44 45 46 47 48 49 50
000
ASUS46 KPDT 180825
RWRPDT
PENDLETON REGIONAL WEATHER ROUNDUP
NATIONAL WEATHER SERVICE PENDLETON OREGON
100 AM PDT SAT APR 18 2015

NOTE: FAIR INDICATES FEW OR NO CLOUDS BELOW 12,000 FEET WITH NO
SIGNIFICANT WEATHER AND/OR OBSTRUCTIONS TO VISIBILITY.

# INDICATES UNOFFICIAL STATION AND DATA

WAZ520-180910-
EAST SLOPES OF WASHINGTON CASCADES

CITY            SKY/WX      TMP DP  RH  WIND    PRES   REMARKS
#BUMPING DAM    N/A         38  N/A N/A NW2     N/A
#CLE ELUM HS    N/A         44  33  65  W1      30.18S
#CLE ELUM LAKE  N/A         45  32  60  NW1     30.21R
#CLIFFDEL 2NW   N/A         43  31  62  N1      N/A
#GLENWOOD       N/A         37  32  82  CALM    30.20R
#MANASTASH CYN  N/A         49  27  42  CALM    30.17S
#NELSON         N/A         42  35  76  CALM    30.27R
#NELSON 3SW     N/A         46  35  65  CALM    30.44S
#NILE           N/A         48  33  56  E1      29.49S
#RONALD 2NW     N/A         44  31  60  CALM    30.11S
#SNOWDEN        N/A         38  24  57  CALM    N/A
#TEANAWAY 4NE   N/A         44  34  68  SW2     N/A
#TROUT LAKE 1NE N/A         42  34  73  CALM    30.19R
$$

WAZ521-180910-
SIMCOE HIGHLANDS

CITY            SKY/WX      TMP DP  RH  WIND    PRES   REMARKS
#BICKLETON HS   N/A         49  26  40  NW3     N/A
#CENTERVILLE 4W N/A         51  37  59  NW9     29.92R
#CENTERVILLE 1SWN/A         47  37  68  SW3     30.13R
#GOLDENDALE     N/A         52  39  61  S2      N/A
#GOLDENDALE 1NE N/A         45  28  51  N3      N/A
#GOODNOE HILLS  N/A         55  39  55  SE3     N/A
#LYLE 6NE       N/A         54  40  59  SW6     30.14S
$$

WAZ026-180910-
KITTITAS VALLEY

CITY            SKY/WX      TMP DP  RH  WIND    PRES   REMARKS
ELLENSBURG AP   CLEAR       53  32  45  NW23G31 30.18R
YTC-OPS AREA    CLEAR       47  30  51  W37G46  30.13S WCI 37
#ELLENSBURG CWU N/A         52  33  48  N12     30.13R
#ELLENSBURG 3NE N/A         50  34  54  N13G24  30.17R
#ELLENSBURG 1E  N/A         52  30  43  NW1     N/A
#KITTITAS 4N    N/A         52  31  44  NW12    28.49R
#KITTITAS 3S    N/A         51  36  56  NW3     30.17R
#THORP 6N       N/A         49  34  56  NW18G30 30.21R WCI 43
$$

WAZ027-180910-
YAKIMA VALLEY

CITY            SKY/WX      TMP DP  RH  WIND    PRES   REMARKS
SUNNYSIDE AP    CLEAR       56  33  42  W15     30.16R
YAKIMA AIRPORT  CLEAR       60  33  36  NW14    30.19S
YAKIMA-VAGABOND CLEAR       55  30  38  N7      30.19S
#DONALD 2NE     N/A         57  20  23  W3      29.03R
#GRANDVIEW      N/A         57  31  37  W3      30.17R
#MABTON         N/A         59  34  39  SW7     30.16S
#NACHES 2SW     N/A         54  36  50  SW6     30.18R
#OUTLOOK DOT    N/A         N/A N/A N/A NW13    N/A
#SELAH 8E       N/A         50  30  46  N6      N/A
#TERRACE HTS    N/A         56  33  42  N8      30.13R
#WAPATO 4NE     N/A         57  20  23  W3      29.03R
#WEST VALLEY    N/A         56  33  42  W6      30.15S
#W YAKIMA       N/A         56  37  49  N5      30.17R
#WHITE SWAN 5E  N/A         50  35  56  CALM    30.18R
#WILEY CITY 3W  N/A         44  14  29  CALM    30.19R
$$

WAZ028-180910-
LOWER COLUMBIA BASIN...WASHINGTON

CITY            SKY/WX      TMP DP  RH  WIND    PRES   REMARKS
PASCO           CLEAR       52  37  56  N12     30.16R
PROSSER AWOS    N/A         57  34  42  W14     30.19R
#BASIN CITY 5SW N/A         53  34  48  W1      30.15R
#BENTON CITY    N/A         59  34  39  W14     30.04R
#CONNELL 5N     N/A         48  34  58  W1      30.14R
#CONNELL 5NW    N/A         51  35  54  N2      30.10R
#ELTOPIA        N/A         53  37  54  CALM    30.12R
#ELTOPIA 6NW    N/A         53  35  50  NW2     29.12R
#KAHLOTUS       N/A         54  36  50  N9      30.13R
#KENNEWICK 3S   N/A         49  40  71  CALM    30.14R
#PATERSON       N/A         59  34  39  N8      30.12R
#PROSSER        N/A         58  29  33  SW7     30.14R
#SAGEMOOR 2W    N/A         53  35  50  NE3     29.98R
#TOUCHET 2S     N/A         44  40  86  CALM    30.15R
#WEST PASCO     N/A         58  34  40  E1      30.16R
$$

WAZ029-180910-
FOOTHILLS OF THE BLUES...WASHINGTON

CITY            SKY/WX      TMP DP  RH  WIND    PRES   REMARKS
WALLA WALLA AP  CLEAR       54  38  55  SE7     30.16R
#CLYDE 6NW      N/A         56  35  45  NW1     30.14R
#DAYTON SCHOOL  N/A         52  33  48  NE5     30.16R
#LOWDEN 2SE     N/A         44  41  89  E1      30.12R
#PLEASANT VIEW 1N/A         56  34  43  W10     30.16R
#PRESCOTT       N/A         40  37  89  CALM    30.14R
#SUDBURY        N/A         40  N/A N/A CALM    N/A
#WHITMAN COLLEGEN/A         53  40  61  SE3     30.19R
#WAITSBURG 5S   N/A         54  37  52  CALM    30.24R
#WAITSBURG 8N   N/A         42  19  39  CALM    29.97S
#WALLA WALLA 5E N/A         47  39  74  NE3     N/A
#WALLA WALLA U  N/A         51  42  71  CALM    30.15R
#WHITMAN MISSIONN/A         45  41  86  CALM    30.17R
$$

WAZ030-180910-
BLUE MOUNTAINS...WASHINGTON

CITY            SKY/WX      TMP DP  RH  WIND    PRES   REMARKS
#DAYTON 8SE     N/A         42  36  79  SE2     29.96R
#DIXIE 5SE      N/A         53  31  43  SW9     30.11R
$$

ORZ009-041-WAZ024-180910-
COLUMBIA RIVER GORGE

CITY            SKY/WX      TMP DP  RH  WIND    PRES   REMARKS
HOOD RIVER AP   CLEAR       54  39  57  CALM    30.21R
THE DALLES AP   PTCLDY      58  41  53  NW12    30.17R
#ARLINGTON AIRPON/A         57  41  55  W3      32.41
#ARLINGTON HS   N/A         59  42  53  CALM    30.04R
#CELILO DOT     N/A         62  36  38  SW3     N/A
#LYLE           N/A         59  43  55  N3      30.20R
#MOSIER 1S      N/A         54  34  47  NW2     30.18R
#MURDOCK        N/A         63  42  46  W7      30.18R
#RUFUS DOT      N/A         64  37  37  W12     N/A

$$

ORZ510-180910-
NORTH CENTRAL OREGON

CITY            SKY/WX      TMP DP  RH  WIND    PRES   REMARKS
#CHENOWITH 1W   N/A         52  38  59  NW23    N/A
#COW CYN RST AREN/A         51  51  100 SE2     N/A
#DUFUR 9E       N/A         54  36  50  W6      30.21R
#GRASS VALLEY 1SN/A         50  34  54  NW3     30.18R
#KENT DOT       N/A         49  31  50  W10     N/A
#MAUPIN SCHOOL  N/A         52  39  61  CALM    30.21R
#MORO SCHOOL    N/A         55  42  61  W12     30.19R
#SHANIKO 5WSW   N/A         47  28  47  SE5     N/A
#SHANIKO 4NW    N/A         48  33  56  W3      30.21R
#TYGH VALLEY 2NEN/A         47  33  58  SE1     30.19R
#WAPANITIA AIRPON/A         49  39  68  NW2     30.20R
#WASCO DOT      N/A         53  38  57  SW2     N/A
#WASCO 5NE      N/A         51  40  66  W2      30.16R
$$

ORZ511-180910-
CENTRAL OREGON

CITY            SKY/WX      TMP DP  RH  WIND    PRES   REMARKS
BEND AIRPORT    CLEAR       39  32  76  CALM    30.23R
MADRAS AIRPORT  CLEAR       46  37  71  CALM    30.23R
PRINEVILLE AP   CLEAR       36  30  79  SW5     30.22R
REDMOND AIRPORT CLEAR       40  30  67  S5      30.22R
#BEND 6E        N/A         43  31  62  CALM    30.11R
#BEND 1SW       N/A         40  34  79  CALM    N/A
#BEND-AWBREY    N/A         48  35  60  N1      30.17R
#BEND-KIM LN    N/A         45  37  73  CALM    30.20R
#CROOKED RVR RANN/A         50  38  63  CALM    30.18R
#CULVER         N/A         46  37  71  E2      30.19R
#LAKE BILLY CHINN/A         48  22  35  E2      30.26R
#MADRAS         N/A         49  38  66  VRB5    N/A
#POWELL BUTTE 3EN/A         50  36  58  W2      N/A
#POWELL BUTTE   N/A         47  34  60  NW3     29.84R
#PRINEVILLE 3N  N/A         50  38  63  NW3     30.15R
#WARM SPRINGS   N/A         54  39  57  S3      30.18R

$$


ORZ509-180910-
EAST SLOPES OF OREGON CASCADES

CITY            SKY/WX      TMP DP  RH  WIND    PRES   REMARKS
#BLUE BOX PASS  N/A         42  -9  11  SE2     N/A
#CAMP SHERMAN   N/A         36  32  85  CALM    30.19R
#LA PINE 4NW    N/A         36  31  82  CALM    30.22S
#SISTERS AIRPOR N/A         40  38  92  N1      30.17S
#SISTERS ODOT   N/A         39  N/A N/A CALM    N/A
#SISTERS 3N     N/A         37  26  64  CALM    30.22R
#SUNRIVER       N/A         40  34  79  CALM    30.08R
#TUMALO 3W      N/A         51  36  56  CALM    30.04R
#WANOGA BUTTE D N/A         44  23  43  CALM    N/A

$$

ORZ044-180910-
LOWER COLUMBIA BASIN...OREGON

CITY            SKY/WX      TMP DP  RH  WIND    PRES   REMARKS
HERMISTON       CLEAR       49  38  66  VRB3    30.15R
#BOARDMAN 8SW   N/A         61  37  41  W7      30.16R
#ECHO 8SW       N/A         53  37  54  W2      30.16R
#IONE SCHOOL    N/A         51  37  59  CALM    30.15R
#IRRIGON 4NW    N/A         52  40  63  E3      N/A
#UMATILLA SCHOOLN/A         48  44  86  CALM    30.20R
#UMATILLA       N/A         68  38  33  CALM    30.07R
$$

ORZ507-180910-
NORTHERN FOOTHILLS OF THE BLUES

CITY            SKY/WX      TMP DP  RH  WIND    PRES   REMARKS
PENDLETON AIRPT CLEAR       47  37  68  SE6     30.17R
#ADAMS 3WNW     N/A         42  36  79  CALM    30.19R
#ATHENA         N/A         45  38  76  CALM    30.20R
#CAYUSE         N/A         49  40  71  E6      30.16R
#HELIX SCHOOL   N/A         44  36  73  CALM    30.16R
#HELIX 3N       N/A         52  34  50  N9      30.13R
#HOLDMAN 6E     N/A         52  34  50  CALM    29.97R
#M-F FERNDALE   N/A         51  37  59  CALM    30.14R
#M-F GROVE ELEM N/A         53  35  50  CALM    30.14R
#M-FREEWATER 5SEN/A         50  38  63  CALM    30.16R
#PENDLETON DNTN N/A         47  31  53  E3      30.16R
#PDT AQUATIC CTRN/A         48  30  49  CALM    30.18R
#PENDLETON 5NE  N/A         42  37  82  CALM    30.14R
#PDT SUNRIDGE   N/A         43  37  79  CALM    30.19R
#PENDLETON 7NW  N/A         45  36  70  CALM    30.14R
#PILOT ROCK     N/A         50  36  58  S2      30.19R
#TUTUILLA       N/A         41  37  86  CALM    30.18R
#UMAPINE 2E     N/A         47  41  79  CALM    30.13R
#WESTON SCHOOL  N/A         49  34  56  CALM    30.16R

$$

ORZ508-180910-
SOUTHERN FOOTHILLS OF THE BLUES

CITY            SKY/WX      TMP DP  RH  WIND    PRES   REMARKS
LEXINGTON       CLEAR       48  37  65  E8      30.21R
#AJAX           N/A         55  31  40  W2      30.12R
#CONDON SCHOOL  N/A         51  38  61  CALM    30.15R
#CONDON 5W      N/A         48  34  58  NW8     30.18R
#FOSSIL SCHOOL  N/A         42  36  79  CALM    30.17R
#HEPPNER EOC    N/A         49  39  68  E3      30.12R
#HEPPNER 4NE    N/A         48  36  63  CALM    30.17R
#LEXINGTON 2SE  N/A         47  38  71  S3      30.17R
#MIKKALO        N/A         54  36  50  W5      30.17R
#OLEX 4N        N/A         54  39  57  SW7     30.16R
#RUGGS 5NE      N/A         49  34  56  CALM    30.36R
#RUGGS 2SW      N/A         49  37  63  SE3     30.20R

$$

ORZ502-503-180910-
BLUE MOUNTAINS

CITY            SKY/WX      TMP DP  RH  WIND    PRES   REMARKS
MEACHAM         CLEAR       33  29  85  CALM    30.21R
#BATTLE MTN DOT N/A         47  40  76  N2      N/A
#HARDMAN 10S    N/A         45  35  68  CALM    30.26R
#HEPPNER 15SE   N/A         44  37  76  CALM    30.14R
#LADD CYN SMT   N/A         42  27  55  N2      N/A
#LADD CREEK ODOTN/A         45  33  63  SW1     N/A
#LONG CREEK HS  N/A         42  37  82  CALM    30.16R
#N POWDER DOT   N/A         47  32  56  N5      N/A
#PIKES PEAK     N/A         51  31  46  S7      27.99S
#TOLLGATE       N/A         41  30  65  CALM    30.11R
#TROY SCHOOL    N/A         44  38  79  CALM    30.01R
#UKIAH          N/A         35  32  89  CALM    30.26R
#WESTON 4E      N/A         50  34  54  CALM    30.10R
$$

ORZ505-180910-
JOHN DAY BASIN

CITY            SKY/WX      TMP DP  RH  WIND    PRES   REMARKS
JOHN DAY        CLEAR       46  34  63  E6      30.20R
#JOHN DAY KJDY  N/A         44  38  79  CALM    30.28R
#DAYVILLE SCHOOLN/A         48  32  54  CALM    30.14R
#MITCHELL       N/A         44  37  76  CALM    30.33R
#MITCHELL 8NW   N/A         52  33  48  CALM    30.11R
#MONUMENT HS    N/A         45  35  68  CALM    30.18R
#MT. VERNON 5SE N/A         50  33  52  CALM    30.14S
#WINLOCK        N/A         46  36  68  CALM    30.26R
$$

ORZ506-180910-
OCHOCO AND JOHN DAY HIGHLANDS

CITY            SKY/WX      TMP DP  RH  WIND    PRES   REMARKS
#BUCK CREEK DOT N/A         48  48  100 CALM    N/A
#HORSE RIDGE DO N/A         38  28  67  CALM    N/A
#KEYES SMT DOT  N/A         47  32  56  NW1     N/A
#PAULINA SCHOOL N/A         67  22  18  CALM    30.14R
#PINE MTN OBS   N/A         42  30  62  NW7     N/A
#PRAIRIE CITY   N/A         34  28  78  CALM    30.33R
#SENECA         N/A         40  N/A N/A N1      N/A
#SENECA 9NW     N/A         36  29  75  CALM    30.16S
$$

ORZ049-180910-
GRANDE RONDE VALLEY

CITY            SKY/WX      TMP DP  RH  WIND    PRES   REMARKS
LA GRANDE       CLEAR       43  27  53  E3      30.16R
#COVE           N/A         43  35  73  N1      30.16R
#COVE SCHOOL    N/A         44  33  65  E3      30.13R
#ELGIN 3N       N/A         39  30  70  CALM    30.14S
#ELGIN 1E       N/A         41  33  73  CALM    N/A
#IMBLER SCHOOL  N/A         56  34  43  N3      30.12R
#ISLAND CITY 4N N/A         47  43  86  CALM    30.25R
#LADD CYN DOT   N/A         50  32  50  SE12    N/A
#LA GRANDE ELEM N/A         53  34  48  W10     30.18R
#UNION 1S       N/A         42  33  70  CALM    30.06S
$$

ORZ050-180910-
WALLOWA COUNTY

CITY            SKY/WX      TMP DP  RH  WIND    PRES   REMARKS
JOSEPH AIRPORT  CLEAR       39  30  70  S3      30.19S
#ENTERPRISE HS  N/A         37  29  72  CALM    30.18R
#IMNAHA SCHOOL  N/A         50  38  63  SW3     30.14R
#IMNAHA 10S     N/A         47  34  60  SW3     30.14R
#JOSEPH 3N      N/A         31  23  72  NE1     30.18S
#JOSEPH 3W      N/A         46  29  51  SW1     30.02R
#LOSTINE        N/A         40  31  70  E1      29.96R
#MT HOWARD 8000 N/A         35  22  59  NW6     30.24S
#PROMISE 1S     N/A         44  32  62  CALM    30.20F
#SHEEP RDG 7000 N/A         41  22  46  CALM    30.12R
#WALLOWA SCHOOL N/A         38  31  76  CALM    31.11R



$$



USA.gov is the U.S. government's official web portal to all federal, state and local government web resources and services.